{"data":{"norad_id":62870,"intl_designator":"2025-022S","name":"STARLINK-32861","alt_names":[],"object_type":"PAYLOAD","status":"ACTIVE","operator":null,"country":"US","launch_date":"2025-02-01","launch_site_code":"AFWTR","launch_vehicle":null,"mission":null,"orbit_class":"UNKNOWN","rcs_meters":null,"size_class":null,"mass_kg":null,"dimensions":null,"purposes":["comms"],"wikipedia_slug":null,"has_3d_model":false,"image_url":null,"decayed_at":null,"tle_current":{"epoch":"2026-09-21T11:35:59.203968Z","epoch_age_seconds":83671,"freshness":"FRESH","line1":"1 62870U 25022S   26264.48332412  .00011868  00000+0  36184-3 0  9999","line2":"2 62870  53.1605 295.4484 0000717  64.9795 295.1282 15.34398137 91942","mean_motion":15.34398137,"eccentricity":7.17e-5,"inclination_deg":53.1605,"raan_deg":295.4484,"arg_perigee_deg":64.9795,"mean_anomaly_deg":295.1282,"bstar":0.00036184,"rev_number":9194,"period_min":93.847872027233,"perigee_km":462.21828879907,"apogee_km":463.19926608356,"semimajor_km":6840.8457774413,"source":"CELESTRAK","updated_at":"2026-09-22T09:00:49.700233Z"}}}